Zurück zum Katalog

STARLINK-1184

AktivKommunikationVLEO
NORAD 45098·PAYLOAD·🇺🇸 United States

Gestartet Jan 29, 2020 von Cape Canaveral Space Force Station

Loading…

Nächste Überflüge (nächste 24 Stunden)

TLE

AktuellSource: CelesTrak SupGP

Epoche: Sep 14, 2026, 21:09 UTC

1 45098C 20006BG  26257.88173611  .00009734  00000+0  46865-3 0  2572
2 45098  53.0509 105.4478 0002816  43.0048   9.3944 15.18237190    12

Verfolge STARLINK-1184 in Echtzeit mit AllMySat

Download on the App Store